Weather History for K46D - February, 2014

Change the Weather History Date:

Sunday, February 16, 2014

  Actual Average (KJMS) Record (KJMS)
Temperature  
Mean Temperature 4 °F 15 °F  
Max Temperature 15 °F 25 °F 52 °F (1954)
Min Temperature -7 °F 6 °F -40 °F (1936)
Degree Days  
Heating Degree Days 61 50  
Month to date heating degree days 831  
Since 1 July heating degree days 6193  
Cooling Degree Days 0 0  
Month to date cooling degree days 0  
Year to date cooling degree days 0  
Moisture  
Dew Point 4 °F    
Average Humidity 93    
Maximum Humidity 100    
Minimum Humidity 78    
Precipitation  
Precipitation 0.01 in 0.01 in 0.31 in (1956)
Month to date precipitation 0.18  
Year to date precipitation 0.63  
Sea Level Pressure  
Sea Level Pressure 29.87 in    
Wind  
Wind Speed 12 mph (SSE)    
Max Wind Speed 30 mph    
Max Gust Speed 40 mph    
Visibility 7 miles    
Events Rain , Snow    
T = Trace of Precipitation, MM = Missing Value Source: NWS Daily Summary

Daily Weather History Graph

Daily Weather History Graph

Search for Another Location

Airport or City:

Trip Planner

Search our weather history database for the weather conditions in past years. The results will help you decide how hot, cold, wet, or windy it might be!

Date:

Astronomy

Feb. 16, 2014 Rise Set
Actual Time 7:40 AM CST 6:01 PM CST
Civil Twilight 7:08 AM CST 6:33 PM CST
Nautical Twilight 6:32 AM CST 7:09 PM CST
Astronomical Twilight 5:57 AM CST 7:44 PM CST
Moon 8:11 PM CST (2/16) 8:01 AM CST (2/16)
Length of Visible Light 11h 24m
Length of Day
10h 21m
Full, 97% of the Moon is Illuminated
Feb 16
Full
Feb 22
Last Quarter
Mar 1
New
Mar 8
First Quarter
Mar 16
Full

Hourly Weather History & Observations

Time (CST) Temp. Windchill Dew Point Humidity Pressure Visibility Wind Dir Wind Speed Gust Speed Precip Events Conditions
12:15 AM -4.0 °F - -7.6 °F 85% 30.12 in 10.0 mi Calm Calm - N/A   Clear
12:35 AM -4.0 °F - -9.4 °F 78% 30.12 in 10.0 mi Calm Calm - N/A   Clear
12:55 AM -4.0 °F -14.6 °F -7.6 °F 85% 30.13 in 10.0 mi West 4.6 mph - N/A   Clear
1:15 AM -5.8 °F -18.4 °F -7.6 °F 92% 30.14 in 10.0 mi West 5.8 mph - N/A   Clear
1:35 AM -5.8 °F -18.4 °F -9.4 °F 84% 30.13 in 10.0 mi WNW 5.8 mph - N/A   Clear
1:55 AM -7.6 °F - -9.4 °F 92% 30.11 in 10.0 mi Calm Calm - N/A   Clear
2:15 AM -5.8 °F - -9.4 °F 84% 30.10 in 10.0 mi Calm Calm - N/A   Clear
2:35 AM -7.6 °F - -9.4 °F 92% 30.11 in 10.0 mi Calm Calm - N/A   Clear
2:55 AM -7.6 °F -18.8 °F -9.4 °F 92% 30.09 in 10.0 mi East 4.6 mph - N/A   Clear
3:15 AM -7.6 °F -20.6 °F -9.4 °F 92% 30.07 in 10.0 mi East 5.8 mph - N/A   Clear
3:35 AM -5.8 °F -16.7 °F -7.6 °F 92% 30.06 in 10.0 mi East 4.6 mph - N/A   Clear
3:55 AM -4.0 °F -12.4 °F -7.6 °F 85% 30.07 in 10.0 mi SSE 3.5 mph - N/A   Clear
4:15 AM -7.6 °F -18.8 °F -9.4 °F 92% 30.07 in 10.0 mi SE 4.6 mph - N/A   Clear
4:35 AM -7.6 °F -22.1 °F -9.4 °F 92% 30.06 in 10.0 mi ESE 6.9 mph - N/A   Clear
4:55 AM -4.0 °F -19.0 °F -7.6 °F 85% 30.05 in 10.0 mi ESE 8.1 mph - N/A   Clear
5:15 AM -4.0 °F -21.2 °F -7.6 °F 85% 30.04 in 10.0 mi ESE 10.4 mph - N/A   Clear
5:35 AM -4.0 °F -20.2 °F -7.6 °F 85% 30.05 in 10.0 mi SE 9.2 mph - N/A   Clear
5:55 AM -4.0 °F -19.0 °F -7.6 °F 85% 30.05 in 10.0 mi SSE 8.1 mph - N/A   Clear
6:15 AM -4.0 °F -19.0 °F -7.6 °F 85% 30.05 in 10.0 mi SSE 8.1 mph - N/A   Clear
6:35 AM -4.0 °F -20.2 °F -7.6 °F 85% 30.05 in 10.0 mi SSE 9.2 mph - N/A   Clear
6:55 AM -4.0 °F -22.1 °F -7.6 °F 85% 30.04 in 10.0 mi SSE 11.5 mph - N/A   Clear
7:15 AM -4.0 °F -23.0 °F -7.6 °F 85% 30.03 in 10.0 mi SSE 12.7 mph - N/A   Clear
7:35 AM -2.2 °F -22.9 °F -5.8 °F 85% 30.02 in 10.0 mi SSE 16.1 mph - N/A   Clear
7:55 AM -2.2 °F -23.5 °F -4.0 °F 92% 30.00 in 10.0 mi SSE 17.3 mph - N/A   Clear
8:15 AM -2.2 °F -24.1 °F -4.0 °F 92% 29.98 in 9.0 mi SSE 18.4 mph - N/A   Partly Cloudy
8:35 AM -0.4 °F -21.7 °F -4.0 °F 85% 29.97 in 8.0 mi SSE 18.4 mph - N/A   Mostly Cloudy
8:55 AM -0.4 °F -22.3 °F -2.2 °F 92% 29.97 in 7.0 mi SSE 19.6 mph - N/A   Overcast
9:15 AM -0.4 °F -22.3 °F -2.2 °F 92% 29.97 in 7.0 mi SSE 19.6 mph - N/A   Overcast
9:35 AM -0.4 °F -22.8 °F -2.2 °F 92% 29.96 in 5.0 mi SSE 20.7 mph - N/A   Overcast
9:55 AM 1.4 °F -19.9 °F -0.4 °F 92% 29.94 in 5.0 mi SSE 19.6 mph - N/A   Mostly Cloudy
10:15 AM 1.4 °F -21.4 °F 1.4 °F 100% 29.93 in 4.0 mi SSE 23.0 mph - N/A   Overcast
10:35 AM 3.2 °F -19.9 °F 1.4 °F 92% 29.90 in 3.0 mi SSE 25.3 mph 33.4 mph N/A   Overcast
10:55 AM 5.0 °F -17.1 °F 3.2 °F 92% 29.88 in 2.0 mi SE 24.2 mph 28.8 mph N/A Rain Light Freezing Rain
11:15 AM 6.8 °F -15.5 °F 5.0 °F 92% 29.86 in 1.8 mi SE 26.5 mph 33.4 mph N/A Rain Light Freezing Rain
11:35 AM 6.8 °F -14.7 °F 6.8 °F 100% 29.85 in 3.0 mi SSE 24.2 mph 31.1 mph N/A Snow Light Snow
11:55 AM 6.8 °F -15.5 °F 6.8 °F 100% 29.83 in 2.0 mi SSE 26.5 mph 32.2 mph N/A Rain Light Freezing Rain
12:15 PM 8.6 °F -11.9 °F 6.8 °F 92% 29.83 in 2.0 mi SSE 23.0 mph 32.2 mph N/A Rain Light Freezing Rain
12:35 PM 8.6 °F -11.9 °F 6.8 °F 92% 29.81 in 3.0 mi SSE 23.0 mph - N/A Rain Light Freezing Rain
12:55 PM 10.4 °F -9.9 °F 8.6 °F 92% 29.79 in 3.0 mi SSE 24.2 mph 33.4 mph N/A Rain Light Freezing Rain
1:15 PM 10.4 °F -11.4 °F 8.6 °F 92% 29.76 in 1.8 mi SSE 28.8 mph 32.2 mph N/A Rain Light Freezing Rain
1:35 PM 12.2 °F -8.2 °F 8.6 °F 85% 29.77 in 5.0 mi SE 26.5 mph 32.2 mph N/A   Overcast
1:55 PM 12.2 °F -7.9 °F 10.4 °F 92% 29.76 in 7.0 mi SSE 25.3 mph 32.2 mph N/A   Overcast
2:15 PM 12.2 °F -7.9 °F 10.4 °F 92% 29.76 in 9.0 mi SE 25.3 mph 31.1 mph N/A   Overcast
2:35 PM 14.0 °F -6.5 °F 10.4 °F 86% 29.74 in 8.0 mi SE 28.8 mph 33.4 mph N/A Snow Light Snow
2:55 PM 14.0 °F -5.5 °F 12.2 °F 93% 29.73 in 7.0 mi SE 25.3 mph 31.1 mph N/A   Overcast
3:15 PM 14.0 °F -5.8 °F 14.0 °F 100% 29.71 in 7.0 mi SE 26.5 mph 32.2 mph N/A Snow Light Snow
3:35 PM 14.0 °F -6.2 °F 14.0 °F 100% 29.71 in 7.0 mi SE 27.6 mph 35.7 mph N/A   Overcast
3:55 PM 15.8 °F -3.7 °F 14.0 °F 93% 29.70 in 5.0 mi SE 27.6 mph 32.2 mph N/A Snow Light Snow
4:15 PM 15.8 °F -3.1 °F 14.0 °F 93% 29.69 in 3.0 mi SE 25.3 mph 32.2 mph N/A Rain Light Freezing Rain
4:35 PM 15.8 °F -3.7 °F 14.0 °F 93% 29.68 in 4.0 mi SE 27.6 mph 33.4 mph N/A Snow Light Snow
4:55 PM 14.0 °F -6.8 °F 14.0 °F 100% 29.65 in 3.0 mi SE 29.9 mph 40.3 mph N/A Snow Light Snow
5:15 PM 14.0 °F -6.5 °F 14.0 °F 100% 29.65 in 3.0 mi SE 28.8 mph 38.0 mph N/A   Overcast
5:35 PM 14.0 °F -5.8 °F 14.0 °F 100% 29.69 in 4.0 mi SSE 26.5 mph - N/A   Overcast
5:55 PM 14.0 °F -4.7 °F 14.0 °F 100% 29.69 in 4.0 mi SSE 23.0 mph 29.9 mph N/A   Overcast
6:15 PM 15.8 °F -1.1 °F 14.0 °F 93% 29.72 in 5.0 mi SSE 19.6 mph - N/A   Overcast
6:35 PM 15.8 °F -0.6 °F 14.0 °F 93% 29.72 in 4.0 mi SSE 18.4 mph 21.9 mph N/A Rain Light Freezing Rain
6:55 PM 14.0 °F -1.4 °F 14.0 °F 100% 29.72 in 5.0 mi SE 15.0 mph - N/A Snow Light Snow
7:15 PM 14.0 °F -3.9 °F 14.0 °F 100% 29.69 in 3.0 mi SE 20.7 mph 24.2 mph N/A Rain Light Freezing Rain
7:35 PM 15.8 °F -0.6 °F 15.8 °F 100% 29.69 in 5.0 mi SE 18.4 mph 21.9 mph N/A   Overcast
7:55 PM 15.8 °F -0.6 °F 15.8 °F 100% 29.70 in 10.0 mi SSE 18.4 mph - N/A   Overcast
8:15 PM 15.8 °F 0.9 °F 15.8 °F 100% 29.70 in 10.0 mi SSE 15.0 mph - N/A   Overcast
8:35 PM 15.8 °F 0.9 °F 15.8 °F 100% 29.71 in 10.0 mi South 15.0 mph - N/A   Overcast
8:55 PM 15.8 °F 2.7 °F 15.8 °F 100% 29.71 in 10.0 mi South 11.5 mph - N/A   Overcast
9:15 PM 15.8 °F 2.7 °F 15.8 °F 100% 29.71 in 10.0 mi SSE 11.5 mph - N/A   Overcast
9:35 PM 15.8 °F 2.7 °F 15.8 °F 100% 29.70 in 10.0 mi SSE 11.5 mph - N/A   Overcast
9:55 PM 15.8 °F 2.7 °F 15.8 °F 100% 29.69 in 10.0 mi SSE 11.5 mph - N/A   Overcast
10:15 PM 15.8 °F 2.1 °F 15.8 °F 100% 29.68 in 10.0 mi SSE 12.7 mph - N/A   Overcast
10:35 PM 15.8 °F 2.1 °F 15.8 °F 100% 29.68 in 2.0 mi SSE 12.7 mph - 0.01 in Snow Light Snow
10:55 PM 15.8 °F 2.7 °F 15.8 °F 100% 29.68 in 10.0 mi SSE 11.5 mph - 0.01 in   Overcast
11:15 PM 15.8 °F 1.4 °F 15.8 °F 100% 29.66 in 10.0 mi SSE 13.8 mph - N/A   Overcast
11:35 PM 15.8 °F 1.4 °F 15.8 °F 100% 29.66 in 9.0 mi SSE 13.8 mph - N/A   Overcast
11:55 PM 15.8 °F 2.7 °F 15.8 °F 100% 29.67 in 2.0 mi SSE 11.5 mph - N/A Snow Light Snow